| time (UTC) | temp C | wind direction | speed KPH | gust KPH | rain 1hr cm | rain 24hr cm | rain mn cm | humidity % | barometer mb |
| 20260506124702 | 15 | 193 | 1.6 | 9.7 | 0.10 | 0.15 | 0.15 | 92 | 1006.0 |
| 20260506124201 | 15 | 183 | 3.2 | 6.4 | 0.10 | 0.13 | 0.13 | 91 | 1006.0 |
| 20260506123702 | 15 | 180 | 3.2 | 16.1 | 0.13 | 0.13 | 0.13 | 91 | 1006.0 |
| 20260506123202 | 15 | 181 | 1.6 | 9.7 | 0.10 | 0.10 | 0.10 | 91 | 1006.1 |
| 20260506122702 | 15 | 179 | 3.2 | 11.3 | 0.10 | 0.10 | 0.10 | 90 | 1006.1 |
| 20260506121702 | 15 | 153 | 1.6 | 9.7 | 0.08 | 0.08 | 0.08 | 89 | 1006.2 |
| 20260506121201 | 15 | 177 | 1.6 | 11.3 | 0.08 | 0.08 | 0.08 | 88 | 1006.0 |
| 20260506120744 | 15 | 154 | 1.6 | 11.3 | 0.08 | 0.08 | 0.08 | 87 | 1006.0 |
| 20260506120201 | 15 | 200 | 1.6 | 8.0 | 0.08 | 0.08 | 0.08 | 86 | 1005.9 |
| 20260506115744 | 16 | 225 | 1.6 | 3.2 | 0.05 | 0.05 | 0.05 | 85 | 1005.9 |
| 20260506115201 | 16 | 220 | 1.6 | 8.0 | 0.05 | 0.05 | 0.05 | 84 | 1005.9 |
| 20260506114744 | 16 | 167 | 1.6 | 9.7 | 0.05 | 0.05 | 0.05 | 82 | 1005.9 |
| 20260506113702 | 17 | 192 | 1.6 | 6.4 | 0.00 | 0.00 | 0.00 | 79 | 1005.8 |
| 20260506113202 | 17 | 157 | 1.6 | 6.4 | 0.00 | 0.00 | 0.00 | 77 | 1005.7 |
| 20260506112702 | 17 | 165 | 1.6 | 8.0 | 0.00 | 0.00 | 0.00 | 76 | 1005.7 |
| 20260506112202 | 17 | 240 | 1.6 | 9.7 | 0.00 | 0.00 | 0.00 | 75 | 1005.7 |
| 20260506111702 | 17 | 200 | 1.6 | 8.0 | 0.00 | 0.00 | 0.00 | 73 | 1005.5 |
| 20260506111244 | 18 | 179 | 1.6 | 8.0 | 0.00 | 0.00 | 0.00 | 72 | 1005.5 |
| 20260506110703 | 18 | 199 | 1.6 | 14.5 | 0.00 | 0.00 | 0.00 | 70 | 1005.5 |
| 20260506110202 | 18 | 197 | 1.6 | 6.4 | 0.00 | 0.00 | 0.00 | 69 | 1005.4 |
| 20260506105702 | 17 | 221 | 1.6 | 16.1 | 0.00 | 0.00 | 0.00 | 69 | 1005.3 |
| 20260506105202 | 18 | 175 | 0.0 | 6.4 | 0.00 | 0.00 | 0.00 | 69 | 1005.1 |
| 20260506104702 | 18 | 174 | 1.6 | 4.8 | 0.00 | 0.00 | 0.00 | 68 | 1005.0 |
| 20260506104244 | 18 | 258 | 1.6 | 9.7 | 0.00 | 0.00 | 0.00 | 68 | 1004.9 |
| 20260506103702 | 18 | 297 | 1.6 | 9.7 | 0.00 | 0.00 | 0.00 | 68 | 1005.0 |
| 20260506103202 | 18 | 159 | 1.6 | 9.7 | 0.00 | 0.00 | 0.00 | 67 | 1004.8 |
| 20260506102702 | 18 | 150 | 1.6 | 8.0 | 0.00 | 0.00 | 0.00 | 67 | 1004.7 |
| 20260506102202 | 18 | 279 | 3.2 | 8.0 | 0.00 | 0.00 | 0.00 | 67 | 1004.7 |
| 20260506101702 | 18 | 154 | 3.2 | 12.9 | 0.00 | 0.00 | 0.00 | 67 | 1004.7 |
| 20260506101244 | 18 | 235 | 3.2 | 9.7 | 0.00 | 0.00 | 0.00 | 67 | 1004.7 |
| 20260506100244 | 18 | 183 | 3.2 | 8.0 | 0.00 | 0.00 | 0.00 | 66 | 1004.7 |
| 20260506095703 | 18 | 140 | 3.2 | 9.7 | 0.00 | 0.00 | 0.00 | 66 | 1004.5 |
| 20260506095202 | 18 | 158 | 1.6 | 6.4 | 0.00 | 0.00 | 0.00 | 65 | 1004.7 |
| 20260506094702 | 18 | 157 | 1.6 | 11.3 | 0.00 | 0.00 | 0.00 | 65 | 1004.8 |
| 20260506094202 | 18 | 121 | 1.6 | 8.0 | 0.00 | 0.00 | 0.00 | 64 | 1004.8 |
| 20260506093702 | 18 | 122 | 1.6 | 3.2 | 0.00 | 0.00 | 0.00 | 63 | 1004.8 |
| 20260506093202 | 18 | 129 | 1.6 | 9.7 | 0.00 | 0.00 | 0.00 | 63 | 1004.8 |
| 20260506092702 | 18 | 173 | 3.2 | 6.4 | 0.00 | 0.00 | 0.00 | 62 | 1004.9 |
| 20260506092202 | 18 | 183 | 3.2 | 16.1 | 0.00 | 0.00 | 0.00 | 62 | 1004.9 |
| 20260506091702 | 18 | 172 | 3.2 | 12.9 | 0.00 | 0.00 | 0.00 | 62 | 1004.9 |
| 20260506091202 | 18 | 178 | 3.2 | 11.3 | 0.00 | 0.00 | 0.00 | 62 | 1005.0 |
| 20260506090703 | 18 | 203 | 3.2 | 25.7 | 0.00 | 0.00 | 0.00 | 61 | 1005.1 |
| 20260506090244 | 18 | 223 | 1.6 | 24.1 | 0.00 | 0.00 | 0.00 | 61 | 1005.1 |
| 20260506085702 | 18 | 278 | 1.6 | 6.4 | 0.00 | 0.00 | 0.00 | 61 | 1005.0 |
| 20260506085244 | 18 | 290 | 1.6 | 17.7 | 0.00 | 0.00 | 0.00 | 60 | 1005.0 |
| 20260506084702 | 18 | 185 | 1.6 | 11.3 | 0.00 | 0.00 | 0.00 | 60 | 1005.1 |
| 20260506084202 | 18 | 180 | 1.6 | 8.0 | 0.00 | 0.00 | 0.00 | 60 | 1005.1 |
| 20260506083702 | 18 | 177 | 1.6 | 4.8 | 0.00 | 0.00 | 0.00 | 59 | 1005.1 |
| 20260506083202 | 18 | 153 | 1.6 | 9.7 | 0.00 | 0.00 | 0.00 | 59 | 1005.1 |
| 20260506082202 | 19 | 179 | 1.6 | 4.8 | 0.00 | 0.00 | 0.00 | 58 | 1005.2 |
| 20260506081702 | 19 | 199 | 1.6 | 14.5 | 0.00 | 0.00 | 0.00 | 58 | 1005.0 |
| 20260506081202 | 19 | 195 | 3.2 | 9.7 | 0.00 | 0.00 | 0.00 | 57 | 1005.2 |
| 20260506080702 | 19 | 284 | 3.2 | 9.7 | 0.00 | 0.00 | 0.00 | 57 | 1005.2 |
| 20260506080202 | 19 | 178 | 1.6 | 8.0 | 0.00 | 0.00 | 0.00 | 57 | 1005.2 |
| 20260506073202 | 19 | 179 | 3.2 | 11.3 | 0.00 | 0.00 | 0.00 | 55 | 1005.2 |
| 20260506072702 | 19 | 186 | 3.2 | 8.0 | 0.00 | 0.00 | 0.00 | 55 | 1005.2 |
| 20260506071702 | 19 | 231 | 1.6 | 8.0 | 0.00 | 0.00 | 0.00 | 54 | 1005.4 |
| 20260506071244 | 19 | 198 | 1.6 | 11.3 | 0.00 | 0.00 | 0.00 | 55 | 1005.5 |
| 20260506070702 | 19 | 192 | 1.6 | 6.4 | 0.00 | 0.00 | 0.00 | 54 | 1005.4 |
| 20260506070202 | 19 | 156 | 3.2 | 9.7 | 0.00 | 0.00 | 0.00 | 54 | 1005.4 |
| 20260506062202 | 20 | 227 | 3.2 | 8.0 | 0.00 | 0.00 | 0.00 | 51 | 1005.9 |
| 20260506061744 | 20 | 212 | 3.2 | 11.3 | 0.00 | 0.00 | 0.00 | 51 | 1006.0 |
| 20260506061202 | 20 | 188 | 3.2 | 16.1 | 0.00 | 0.00 | 0.00 | 52 | 1006.1 |
| 20260506060702 | 20 | 217 | 1.6 | 11.3 | 0.00 | 0.00 | 0.00 | 51 | 1006.1 |
| 20260506060202 | 20 | 200 | 3.2 | 6.4 | 0.00 | 0.00 | 0.00 | 50 | 1006.1 |
| 20260506051202 | 20 | 177 | 3.2 | 12.9 | 0.00 | 0.00 | 0.00 | 49 | 1006.5 |
| 20260506050702 | 20 | 184 | 1.6 | 12.9 | 0.00 | 0.00 | 0.00 | 49 | 1006.5 |
| 20260506050202 | 20 | 155 | 1.6 | 8.0 | 0.00 | 0.00 | 0.00 | 49 | 1006.6 |
| 20260506044702 | 20 | 179 | 3.2 | 11.3 | 0.00 | 0.00 | 0.00 | 48 | 1006.5 |
| 20260506044202 | 20 | 165 | 3.2 | 17.7 | 0.00 | 0.00 | 0.00 | 48 | 1006.5 |
| 20260506043702 | 20 | 196 | 3.2 | 17.7 | 0.00 | 0.00 | 0.00 | 48 | 1006.5 |
| 20260506043203 | 20 | 207 | 3.2 | 9.7 | 0.00 | 0.00 | 0.00 | 49 | 1006.5 |
| 20260506042744 | 20 | 167 | 3.2 | 25.7 | 0.00 | 0.00 | 0.00 | 48 | 1006.4 |
| 20260506042202 | 20 | 178 | 1.6 | 16.1 | 0.00 | 0.00 | 0.00 | 50 | 1006.4 |
| 20260506041702 | 20 | 192 | 1.6 | 16.1 | 0.00 | 0.00 | 0.00 | 50 | 1006.4 |
| 20260506041202 | 20 | 169 | 1.6 | 16.1 | 0.00 | 0.00 | 0.00 | 50 | 1006.5 |
| 20260506040703 | 20 | 194 | 1.6 | 6.4 | 0.00 | 0.00 | 0.00 | 50 | 1006.6 |
| 20260506040202 | 20 | 195 | 1.6 | 8.0 | 0.00 | 0.00 | 0.00 | 50 | 1006.6 |
| 20260506035702 | 20 | 175 | 1.6 | 9.7 | 0.00 | 0.00 | 0.00 | 50 | 1006.6 |
| 20260506035202 | 20 | 160 | 1.6 | 8.0 | 0.00 | 0.00 | 0.00 | 51 | 1006.7 |
| 20260506034702 | 20 | 162 | 1.6 | 6.4 | 0.00 | 0.00 | 0.00 | 51 | 1006.6 |
| 20260506034202 | 20 | 179 | 1.6 | 8.0 | 0.00 | 0.00 | 0.00 | 52 | 1006.5 |
| 20260506033744 | 20 | 213 | 1.6 | 4.8 | 0.00 | 0.00 | 0.00 | 51 | 1006.6 |
| 20260506033202 | 20 | 200 | 1.6 | 8.0 | 0.00 | 0.00 | 0.00 | 51 | 1006.6 |
| 20260506032745 | 20 | 225 | 1.6 | 9.7 | 0.00 | 0.00 | 0.00 | 51 | 1006.7 |
| 20260506032202 | 20 | 213 | 1.6 | 9.7 | 0.00 | 0.00 | 0.00 | 52 | 1006.7 |
| 20260506031702 | 20 | 228 | 1.6 | 8.0 | 0.00 | 0.00 | 0.00 | 52 | 1006.6 |
| 20260506031202 | 20 | 200 | 1.6 | 11.3 | 0.00 | 0.00 | 0.00 | 51 | 1006.7 |
| 20260506030702 | 20 | 214 | 1.6 | 14.5 | 0.00 | 0.00 | 0.00 | 52 | 1006.6 |
| 20260506030202 | 20 | 193 | 1.6 | 6.4 | 0.00 | 0.00 | 0.00 | 51 | 1006.6 |
| 20260506025702 | 20 | 243 | 1.6 | 8.0 | 0.00 | 0.00 | 0.00 | 52 | 1006.6 |
| 20260506025202 | 19 | 220 | 1.6 | 8.0 | 0.00 | 0.00 | 0.00 | 52 | 1006.7 |
| 20260506024703 | 19 | 225 | 1.6 | 6.4 | 0.00 | 0.00 | 0.00 | 52 | 1006.6 |
| 20260506024202 | 19 | 244 | 1.6 | 8.0 | 0.00 | 0.00 | 0.00 | 53 | 1006.6 |
| 20260506023702 | 19 | 151 | 1.6 | 6.4 | 0.00 | 0.00 | 0.00 | 54 | 1006.6 |
| 20260506023202 | 19 | 227 | 1.6 | 9.7 | 0.00 | 0.00 | 0.00 | 54 | 1006.7 |
| 20260506022745 | 19 | 250 | 1.6 | 19.3 | 0.00 | 0.00 | 0.00 | 54 | 1006.7 |
| 20260506022203 | 19 | 230 | 0.0 | 9.7 | 0.00 | 0.00 | 0.00 | 55 | 1006.8 |
| 20260506021702 | 19 | 227 | 1.6 | 4.8 | 0.00 | 0.00 | 0.00 | 56 | 1006.8 |
| 20260506021202 | 19 | 230 | 1.6 | 11.3 | 0.00 | 0.00 | 0.00 | 56 | 1006.8 |
| 20260506020744 | 19 | 244 | 0.0 | 6.4 | 0.00 | 0.00 | 0.00 | 57 | 1006.8 |
| 20260506020203 | 19 | 251 | 0.0 | 1.6 | 0.00 | 0.00 | 0.00 | 60 | 1006.8 |
| 20260506015703 | 19 | 252 | 0.0 | 3.2 | 0.00 | 0.00 | 0.00 | 61 | 1006.8 |
| 20260506015244 | 19 | 252 | 0.0 | 0.0 | 0.00 | 0.00 | 0.00 | 61 | 1006.7 |
| 20260506014703 | 19 | 252 | 0.0 | 0.0 | 0.00 | 0.00 | 0.00 | 61 | 1006.7 |
| 20260506014245 | 19 | 252 | 0.0 | 0.0 | 0.00 | 0.00 | 0.00 | 61 | 1006.8 |
| 20260506013703 | 19 | 252 | 0.0 | 1.6 | 0.00 | 0.00 | 0.00 | 61 | 1006.8 |
| 20260506013202 | 19 | 252 | 0.0 | 0.0 | 0.00 | 0.00 | 0.00 | 61 | 1006.7 |
| 20260506012702 | 19 | 252 | 0.0 | 1.6 | 0.00 | 0.00 | 0.00 | 61 | 1006.7 |
| 20260506012202 | 20 | 252 | 0.0 | 4.8 | 0.00 | 0.00 | 0.00 | 60 | 1006.6 |
| 20260506011745 | 20 | 252 | 0.0 | 3.2 | 0.00 | 0.00 | 0.00 | 60 | 1006.6 |
| 20260506011202 | 20 | 252 | 0.0 | 4.8 | 0.00 | 0.00 | 0.00 | 59 | 1006.5 |
| 20260506010702 | 20 | 252 | 0.0 | 8.0 | 0.00 | 0.00 | 0.00 | 59 | 1006.5 |
| 20260506010202 | 20 | 270 | 0.0 | 3.2 | 0.00 | 0.00 | 0.00 | 58 | 1006.4 |
| 20260506005703 | 20 | 270 | 0.0 | 3.2 | 0.00 | 0.00 | 0.00 | 58 | 1006.4 |
| 20260506005202 | 20 | 270 | 0.0 | 1.6 | 0.00 | 0.00 | 0.00 | 57 | 1006.3 |
| 20260506004702 | 20 | 270 | 0.0 | 0.0 | 0.00 | 0.00 | 0.00 | 57 | 1006.3 |
| 20260506003702 | 21 | 270 | 0.0 | 0.0 | 0.00 | 0.00 | 0.00 | 56 | 1006.2 |
| 20260506003203 | 21 | 270 | 0.0 | 3.2 | 0.00 | 0.00 | 0.00 | 55 | 1006.1 |
| 20260506002702 | 21 | 270 | 0.0 | 1.6 | 0.00 | 0.00 | 0.00 | 55 | 1006.1 |
| 20260506002245 | 21 | 270 | 0.0 | 3.2 | 0.00 | 0.00 | 0.00 | 54 | 1006.0 |
| 20260506001703 | 21 | 270 | 0.0 | 1.6 | 0.00 | 0.00 | 0.00 | 54 | 1006.0 |
| 20260506001202 | 21 | 270 | 0.0 | 4.8 | 0.00 | 0.00 | 0.00 | 53 | 1005.9 |
| 20260506000703 | 22 | 270 | 0.0 | 3.2 | 0.00 | 0.00 | 0.00 | 52 | 1005.9 |
| 20260506000204 | 22 | 279 | 1.6 | 8.0 | 0.00 | 0.00 | 0.00 | 52 | 1005.8 |
| 20260505235702 | 22 | 284 | 1.6 | 6.4 | 0.00 | 0.00 | 0.00 | 51 | 1005.7 |
| 20260505235244 | 22 | 286 | 1.6 | 4.8 | 0.00 | 0.00 | 0.00 | 50 | 1005.8 |
| 20260505234745 | 23 | 295 | 1.6 | 4.8 | 0.00 | 0.00 | 0.00 | 49 | 1005.6 |
| 20260505234202 | 23 | 295 | 3.2 | 8.0 | 0.00 | 0.00 | 0.00 | 48 | 1005.6 |
| 20260505233702 | 23 | 303 | 3.2 | 11.3 | 0.00 | 0.00 | 0.00 | 48 | 1005.6 |
| 20260505233203 | 23 | 244 | 3.2 | 17.7 | 0.00 | 0.00 | 0.00 | 47 | 1005.5 |
| 20260505232703 | 23 | 254 | 3.2 | 14.5 | 0.00 | 0.00 | 0.00 | 47 | 1005.4 |
| 20260505232202 | 23 | 236 | 3.2 | 9.7 | 0.00 | 0.00 | 0.00 | 47 | 1005.3 |
| 20260505231703 | 23 | 180 | 4.8 | 14.5 | 0.00 | 0.00 | 0.00 | 47 | 1005.1 |
| 20260505231202 | 23 | 213 | 3.2 | 22.5 | 0.00 | 0.00 | 0.00 | 48 | 1005.2 |
| 20260505230702 | 23 | 164 | 3.2 | 14.5 | 0.00 | 0.00 | 0.00 | 47 | 1005.0 |
| 20260505230203 | 23 | 184 | 1.6 | 9.7 | 0.00 | 0.00 | 0.00 | 47 | 1005.0 |
| 20260505225702 | 23 | 190 | 1.6 | 11.3 | 0.00 | 0.00 | 0.00 | 47 | 1005.0 |
| 20260505225202 | 23 | 184 | 3.2 | 11.3 | 0.00 | 0.00 | 0.00 | 47 | 1005.0 |
| 20260505224745 | 23 | 216 | 3.2 | 20.9 | 0.00 | 0.00 | 0.00 | 46 | 1005.0 |
| 20260505224202 | 23 | 166 | 3.2 | 11.3 | 0.00 | 0.00 | 0.00 | 46 | 1004.9 |
| 20260505223745 | 23 | 233 | 3.2 | 9.7 | 0.00 | 0.00 | 0.00 | 46 | 1005.0 |
| 20260505223202 | 23 | 230 | 4.8 | 17.7 | 0.00 | 0.00 | 0.00 | 47 | 1005.0 |
| 20260505222702 | 23 | 199 | 1.6 | 9.7 | 0.00 | 0.00 | 0.00 | 47 | 1005.1 |
| 20260505222245 | 23 | 156 | 1.6 | 11.3 | 0.00 | 0.00 | 0.00 | 47 | 1005.1 |
| 20260505221703 | 23 | 123 | 3.2 | 4.8 | 0.00 | 0.00 | 0.00 | 47 | 1005.1 |
| 20260505221202 | 23 | 210 | 3.2 | 14.5 | 0.00 | 0.00 | 0.00 | 47 | 1005.1 |
| 20260505220703 | 23 | 193 | 3.2 | 11.3 | 0.00 | 0.00 | 0.00 | 48 | 1005.1 |
| 20260505220202 | 23 | 160 | 3.2 | 9.7 | 0.00 | 0.00 | 0.00 | 47 | 1005.1 |
| 20260505215702 | 23 | 206 | 3.2 | 16.1 | 0.00 | 0.00 | 0.00 | 49 | 1005.0 |
| 20260505215245 | 23 | 174 | 3.2 | 14.5 | 0.00 | 0.00 | 0.00 | 46 | 1005.0 |
| 20260505214745 | 24 | 230 | 3.2 | 14.5 | 0.00 | 0.00 | 0.00 | 47 | 1004.9 |
| 20260505214245 | 24 | 200 | 3.2 | 9.7 | 0.00 | 0.00 | 0.00 | 48 | 1004.8 |
| 20260505213702 | 24 | 204 | 3.2 | 14.5 | 0.00 | 0.00 | 0.00 | 46 | 1004.8 |
| 20260505212703 | 24 | 156 | 3.2 | 9.7 | 0.00 | 0.00 | 0.00 | 46 | 1004.7 |
| 20260505212202 | 24 | 162 | 4.8 | 9.7 | 0.00 | 0.00 | 0.00 | 46 | 1004.6 |
| 20260505211703 | 24 | 199 | 4.8 | 20.9 | 0.00 | 0.00 | 0.00 | 48 | 1004.7 |
| 20260505210703 | 24 | 186 | 3.2 | 16.1 | 0.00 | 0.00 | 0.00 | 46 | 1004.7 |
| 20260505210202 | 24 | 234 | 3.2 | 20.9 | 0.00 | 0.00 | 0.00 | 45 | 1004.7 |
| 20260505205703 | 25 | 216 | 3.2 | 11.3 | 0.00 | 0.00 | 0.00 | 45 | 1004.7 |
| 20260505205203 | 25 | 208 | 3.2 | 17.7 | 0.00 | 0.00 | 0.00 | 45 | 1004.7 |
| 20260505204702 | 25 | 239 | 3.2 | 16.1 | 0.00 | 0.00 | 0.00 | 44 | 1004.7 |
| 20260505204245 | 25 | 214 | 4.8 | 14.5 | 0.00 | 0.00 | 0.00 | 45 | 1004.6 |
| 20260505203745 | 25 | 191 | 4.8 | 17.7 | 0.00 | 0.00 | 0.00 | 45 | 1004.8 |
| 20260505201303 | 25 | 212 | 8.0 | 30.6 | 0.00 | 0.00 | 0.00 | 41 | 1004.5 |
| 20260505200803 | 25 | 208 | 6.4 | 32.2 | 0.00 | 0.00 | 0.00 | 43 | 1004.7 |
| 20260505200302 | 26 | 161 | 6.4 | 17.7 | 0.00 | 0.00 | 0.00 | 41 | 1004.8 |
| 20260505195845 | 26 | 187 | 6.4 | 25.7 | 0.00 | 0.00 | 0.00 | 41 | 1004.7 |
| 20260505194803 | 27 | 173 | 4.8 | 12.9 | 0.00 | 0.00 | 0.00 | 41 | 1004.8 |
| 20260505194303 | 27 | 211 | 6.4 | 20.9 | 0.00 | 0.00 | 0.00 | 42 | 1004.8 |
| 20260505193845 | 27 | 216 | 6.4 | 16.1 | 0.00 | 0.00 | 0.00 | 42 | 1004.9 |
| 20260505193302 | 26 | 226 | 6.4 | 25.7 | 0.00 | 0.00 | 0.00 | 41 | 1005.1 |
| 20260505192803 | 26 | 201 | 8.0 | 20.9 | 0.00 | 0.00 | 0.00 | 42 | 1004.9 |
| 20260505192305 | 27 | 219 | 9.7 | 25.7 | 0.00 | 0.00 | 0.00 | 41 | 1005.0 |
| 20260505191803 | 27 | 226 | 8.0 | 43.5 | 0.00 | 0.00 | 0.00 | 42 | 1004.8 |
| 20260505191303 | 27 | 190 | 8.0 | 22.5 | 0.00 | 0.00 | 0.00 | 42 | 1004.9 |
| 20260505190802 | 26 | 197 | 6.4 | 20.9 | 0.00 | 0.00 | 0.00 | 45 | 1004.8 |
| 20260505190303 | 26 | 183 | 6.4 | 40.2 | 0.00 | 0.00 | 0.00 | 41 | 1005.0 |
| 20260505185803 | 26 | 194 | 3.2 | 14.5 | 0.00 | 0.00 | 0.00 | 44 | 1005.2 |
| 20260505184803 | 26 | 198 | 3.2 | 20.9 | 0.00 | 0.00 | 0.00 | 44 | 1005.4 |
| 20260505184303 | 26 | 202 | 4.8 | 24.1 | 0.00 | 0.00 | 0.00 | 46 | 1005.4 |
| 20260505183803 | 26 | 223 | 6.4 | 19.3 | 0.00 | 0.00 | 0.00 | 47 | 1005.8 |
| 20260505183303 | 25 | 177 | 4.8 | 19.3 | 0.00 | 0.00 | 0.00 | 47 | 1005.8 |
| 20260505182803 | 25 | 228 | 6.4 | 20.9 | 0.00 | 0.00 | 0.00 | 47 | 1006.0 |
| 20260505182305 | 26 | 223 | 6.4 | 24.1 | 0.00 | 0.00 | 0.00 | 46 | 1006.1 |
| 20260505181803 | 25 | 174 | 4.8 | 14.5 | 0.00 | 0.00 | 0.00 | 49 | 1006.2 |
| 20260505181303 | 25 | 223 | 4.8 | 24.1 | 0.00 | 0.00 | 0.00 | 49 | 1006.3 |
| 20260505180845 | 25 | 192 | 6.4 | 20.9 | 0.00 | 0.00 | 0.00 | 51 | 1006.3 |
| 20260505180302 | 25 | 195 | 3.2 | 22.5 | 0.00 | 0.00 | 0.00 | 49 | 1006.4 |
| 20260505175305 | 25 | 273 | 6.4 | 19.3 | 0.00 | 0.00 | 0.00 | 48 | 1006.3 |
| 20260505174802 | 25 | 226 | 6.4 | 16.1 | 0.00 | 0.00 | 0.00 | 47 | 1006.5 |
| 20260505174345 | 26 | 206 | 6.4 | 22.5 | 0.00 | 0.00 | 0.00 | 47 | 1006.5 |
| 20260505173803 | 26 | 258 | 4.8 | 16.1 | 0.00 | 0.00 | 0.00 | 47 | 1006.4 |
| 20260505173303 | 26 | 223 | 4.8 | 16.1 | 0.00 | 0.00 | 0.00 | 47 | 1006.3 |
| 20260505172845 | 26 | 215 | 4.8 | 22.5 | 0.00 | 0.00 | 0.00 | 47 | 1006.3 |
| 20260505172305 | 26 | 187 | 6.4 | 19.3 | 0.00 | 0.00 | 0.00 | 46 | 1006.2 |
| 20260505171803 | 26 | 239 | 4.8 | 19.3 | 0.00 | 0.00 | 0.00 | 45 | 1006.4 |
| 20260505171303 | 26 | 239 | 4.8 | 16.1 | 0.00 | 0.00 | 0.00 | 48 | 1006.4 |
| 20260505170803 | 26 | 166 | 4.8 | 16.1 | 0.00 | 0.00 | 0.00 | 47 | 1006.5 |
| 20260505170303 | 26 | 156 | 4.8 | 19.3 | 0.00 | 0.00 | 0.00 | 48 | 1006.3 |
| 20260505165802 | 26 | 246 | 4.8 | 19.3 | 0.00 | 0.00 | 0.00 | 46 | 1006.6 |
| 20260505165306 | 26 | 174 | 3.2 | 17.7 | 0.00 | 0.00 | 0.00 | 48 | 1006.7 |
| 20260505164803 | 25 | 176 | 6.4 | 11.3 | 0.00 | 0.00 | 0.00 | 50 | 1006.8 |
| 20260505164303 | 25 | 221 | 6.4 | 20.9 | 0.00 | 0.00 | 0.00 | 51 | 1006.9 |
| 20260505163845 | 25 | 201 | 6.4 | 22.5 | 0.00 | 0.00 | 0.00 | 48 | 1006.9 |
| 20260505162845 | 25 | 225 | 4.8 | 24.1 | 0.00 | 0.00 | 0.00 | 49 | 1007.2 |
| 20260505162345 | 25 | 210 | 4.8 | 27.4 | 0.00 | 0.00 | 0.00 | 49 | 1007.2 |
| 20260505161804 | 25 | 211 | 4.8 | 20.9 | 0.00 | 0.00 | 0.00 | 50 | 1007.3 |
| 20260505161303 | 25 | 239 | 6.4 | 17.7 | 0.00 | 0.00 | 0.00 | 52 | 1007.3 |
| 20260505160803 | 25 | 239 | 6.4 | 17.7 | 0.00 | 0.00 | 0.00 | 49 | 1007.2 |
| 20260505160345 | 25 | 235 | 6.4 | 17.7 | 0.00 | 0.00 | 0.00 | 50 | 1007.4 |
| 20260505153303 | 25 | 203 | 6.4 | 16.1 | 0.00 | 0.00 | 0.00 | 52 | 1007.6 |
| 20260505152803 | 25 | 238 | 6.4 | 20.9 | 0.00 | 0.00 | 0.00 | 51 | 1007.7 |
| 20260505151803 | 25 | 243 | 4.8 | 17.7 | 0.00 | 0.00 | 0.00 | 51 | 1007.7 |
| 20260505151303 | 24 | 181 | 3.2 | 19.3 | 0.00 | 0.00 | 0.00 | 52 | 1007.7 |
| 20260505150845 | 24 | 281 | 3.2 | 11.3 | 0.00 | 0.00 | 0.00 | 52 | 1007.7 |
| 20260505150302 | 24 | 213 | 3.2 | 19.3 | 0.00 | 0.00 | 0.00 | 51 | 1007.6 |
| 20260505140303 | 23 | 246 | 3.2 | 20.9 | 0.00 | 0.00 | 0.00 | 55 | 1008.0 |
| 20260505130303 | 20 | 210 | 3.2 | 14.5 | 0.00 | 0.00 | 0.00 | 60 | 1008.4 |